[[{"header":{"parameterUnit":"m.s-1","parameterCategory":1,"la1":30.2992,"la2":30.254,"lo1":-89.0895,"lo2":-89.0443,"dy":0.0025,"dx":0.0025,"nx":19,"ny":19,"refTime":"2026-03-24T03:00:00:Z","depth":0,"parameterNumber":2,"parameterNumberName":"U-component_of_WINDS"},"data":[0,0,0,-0.672,-0.672,-0.669,-0.669,-0.6671,-0.6671,0,0,0,0,0,0,0,0,0,0,0,-0.6739,-0.6739,-0.672,-0.672,-0.669,-0.669,-0.6671,-0.6671,0,0,0,0,0,0,0,0,0,0,0,-0.6739,-0.6739,-0.6739,-0.672,-0.669,-0.669,-0.6671,-0.6687,0,0,0,0,0,0,0,0,0,0,-0.6713,-0.6739,-0.6739,-0.674,-0.672,-0.669,-0.669,-0.6688,-0.6686,-0.6692,0,-0.6699,0,-0.6685,-0.6671,-0.6671,0,0,0,-0.6712,-0.6741,-0.6724,-0.674,-0.672,-0.6691,-0.6702,-0.6687,-0.6685,-0.6691,-0.6699,-0.6698,-0.6685,-0.6671,-0.6671,-0.6732,-0.6733,0,0,-0.6714,-0.6739,-0.6725,-0.6723,-0.6728,-0.6703,-0.6701,-0.6685,-0.6696,-0.6699,-0.6697,-0.6685,-0.6671,-0.6671,-0.6731,-0.6732,0,0,0,-0.6724,-0.6741,-0.6724,-0.6724,-0.6718,-0.6702,-0.67,-0.6697,-0.6689,-0.6697,-0.6684,-0.6671,-0.6671,-0.6731,-0.6732,-0.6789,0,0,0,-0.6724,-0.6746,-0.6725,-0.674,-0.6718,-0.6707,-0.6712,-0.6691,-0.6688,-0.6685,-0.6671,-0.6671,-0.673,-0.6731,-0.6786,-0.6812,0,0,0,-0.6738,-0.6748,-0.6747,-0.6741,-0.6729,-0.6706,-0.6698,-0.6689,-0.6681,-0.6671,-0.6671,-0.6729,-0.6731,-0.6783,-0.6807,-0.6837,0,0,0,-0.6759,-0.6796,-0.6748,-0.6785,-0.673,-0.6741,-0.6697,-0.6704,-0.6703,-0.6671,-0.673,-0.6732,-0.6782,-0.6804,-0.6835,-0.6869,-0.6885,0,0,-0.682,-0.6804,-0.6824,-0.6781,-0.6807,-0.6744,-0.6779,-0.6753,-0.6729,-0.6733,-0.6734,-0.6787,-0.6807,-0.6837,-0.6963,-0.6976,0,0,0,-0.6852,-0.6868,-0.6869,-0.6869,-0.6851,-0.6839,-0.6805,-0.6796,-0.6798,-0.6736,-0.6804,-0.6815,-0.6832,-0.6847,-0.6858,-0.6872,-0.6739,-0.6739,-0.6739,-0.6975,-0.6943,-0.6976,-0.6942,-0.6942,-0.6909,-0.6908,-0.689,-0.6856,-0.6873,-0.6874,-0.6955,-0.6973,-0.6981,-0.6997,-0.6888,-0.6888,-0.6889,-0.6889,-0.7063,-0.7081,-0.7038,-0.7054,-0.7021,-0.7034,-0.7005,-0.6982,-0.6991,-0.695,-0.6963,-0.6923,-0.6997,-0.7008,-0.6893,-0.6892,-0.6892,-0.6891,-0.6891,-0.7142,-0.7145,-0.7134,-0.7133,-0.7137,-0.7101,-0.7113,-0.7081,-0.7052,-0.7065,-0.7065,-0.7064,-0.7062,-0.7067,-0.7068,-0.7068,-0.7068,-0.7068,-0.7069,-0.7228,-0.7214,-0.7227,-0.7214,-0.7212,-0.7205,-0.7174,-0.7172,-0.7161,-0.7138,-0.7138,-0.7106,-0.7009,-0.6987,-0.7073,-0.7072,-0.7071,-0.7071,-0.7071,-0.7332,-0.7304,-0.7325,-0.7323,-0.7307,-0.7315,-0.7275,-0.7274,-0.7267,-0.7275,-0.724,-0.7173,-0.7155,-0.7146,-0.7127,-0.7245,-0.7245,-0.7245,-0.7245,-0.74,-0.7388,-0.7404,-0.7404,-0.74,-0.7368,-0.7396,-0.7374,-0.7347,-0.7342,-0.732,-0.7292,-0.7285,-0.7271,-0.7259,-0.7242,-0.7386,-0.7386,-0.7386,-0.7464,-0.745,-0.7479,-0.7452,-0.7438,-0.7427,-0.7454,-0.7457,-0.742,-0.7391,-0.7338,-0.7332,-0.7287,-0.7273,-0.7243,-0.7226,-0.7193,0,0]},{"header":{"parameterUnit":"m.s-1","parameterCategory":1,"la1":30.2992,"la2":30.254,"lo1":-89.0895,"lo2":-89.0443,"dy":0.0025,"dx":0.0025,"nx":19,"ny":19,"refTime":"2026-03-24T03:00:00:Z","depth":0,"parameterNumber":3,"parameterNumberName":"V-component_of_WINDS"},"data":[0,0,0,2.6808,2.6808,2.682,2.682,2.6817,2.6817,0,0,0,0,0,0,0,0,0,0,0,2.6798,2.6797,2.6808,2.6808,2.682,2.682,2.6817,2.6817,0,0,0,0,0,0,0,0,0,0,0,2.6798,2.6797,2.6797,2.6808,2.682,2.682,2.6817,2.6814,0,0,0,0,0,0,0,0,0,0,2.6805,2.6789,2.6798,2.6797,2.6808,2.682,2.682,2.6814,2.6814,2.6805,0,2.6798,0,2.6807,2.6816,2.6816,0,0,0,2.6813,2.6789,2.6799,2.6797,2.6808,2.682,2.6816,2.6814,2.6814,2.6805,2.6798,2.6799,2.6807,2.6815,2.6815,2.6752,2.6752,0,0,2.6812,2.6795,2.6799,2.6799,2.68,2.6816,2.6816,2.6814,2.6805,2.6798,2.6799,2.6807,2.6815,2.6815,2.6753,2.6752,0,0,0,2.6807,2.6795,2.6805,2.6799,2.6802,2.6816,2.6817,2.6805,2.681,2.6799,2.6807,2.6815,2.6815,2.6753,2.6752,2.6708,0,0,0,2.6807,2.6792,2.6804,2.6794,2.6802,2.6804,2.6807,2.681,2.681,2.6807,2.6815,2.6815,2.6754,2.6753,2.6711,2.6689,0,0,0,2.6799,2.6791,2.679,2.6793,2.6798,2.6805,2.681,2.681,2.6815,2.6815,2.6815,2.6754,2.6753,2.6713,2.6693,2.6664,0,0,0,2.6785,2.6753,2.6789,2.6756,2.6797,2.6779,2.681,2.6797,2.6793,2.6815,2.6754,2.6753,2.6714,2.6696,2.6667,2.6635,2.6621,0,0,2.6734,2.6746,2.6727,2.6761,2.6731,2.6779,2.6742,2.6754,2.6769,2.6756,2.6755,2.671,2.6693,2.6665,2.6556,2.6545,0,0,0,2.6705,2.6691,2.6687,2.6682,2.6691,2.6695,2.6714,2.6718,2.6707,2.676,2.6694,2.6685,2.6669,2.6654,2.6644,2.6629,2.6746,2.6746,2.6746,2.6607,2.6628,2.6597,2.6618,2.6613,2.6632,2.6627,2.6635,2.6659,2.6642,2.6638,2.6569,2.6552,2.6545,2.6528,2.6626,2.6626,2.6625,2.6625,2.6531,2.6512,2.6543,2.6524,2.6544,2.6527,2.6542,2.6559,2.6542,2.6576,2.6562,2.6593,2.6532,2.6518,2.6622,2.6623,2.6623,2.6623,2.6624,2.6466,2.646,2.6466,2.6458,2.6449,2.6471,2.6453,2.6474,2.6493,2.648,2.6474,2.6475,2.6474,2.6477,2.6476,2.6476,2.6476,2.6476,2.6476,2.6395,2.6402,2.6386,2.639,2.6387,2.6386,2.6402,2.6398,2.6399,2.6415,2.6415,2.6436,2.6524,2.6543,2.6472,2.6472,2.6473,2.6473,2.6474,2.6303,2.6327,2.6302,2.6298,2.6302,2.6288,2.6315,2.6305,2.6305,2.6294,2.6319,2.6382,2.6394,2.6402,2.6417,2.6318,2.6318,2.6318,2.6318,2.6245,2.6254,2.6231,2.6223,2.6219,2.6239,2.6204,2.6214,2.6228,2.6228,2.6246,2.627,2.6277,2.6285,2.6295,2.6309,2.6185,2.6184,2.6184,2.6187,2.6196,2.6165,2.618,2.6184,2.6184,2.615,2.6137,2.6158,2.6179,2.6227,2.6232,2.6271,2.6283,2.6303,2.6319,2.6346,0,0]}]]